x

Mcbh Kaneohe Bay Hawaii (91176) Weather Station

10:08pm - Thu 24th Apr 2014 All times are HST. -10 hours from GMT.

  • Wind
    12mph, 18mph gusts
  • Air Temp 72°f
  • Sea Pressure 1021.7mb
  • Mcbh Kaneohe Bay Hawaii
  • Mcbh Kaneohe Bay Hawaii

More Historic Weather Station data

Upgrade to MSW Pro to gain access to the past 30 days of data for over 8000 Wavebouys and Weather Stations around the globe.

Join Pro

Comparision Forecast

View Surf forecast
   
Thu 04/24 10:08pm 12 18 mph 1021.7mb 72f
9:57pm 9 18 mph 1021.3mb 72f
8:57pm 14 27 mph 1021mb 72f
8:55pm 17 27 mph 1021mb 72f
8:30pm 15 23 mph 1020.7mb 75f
8:13pm 9 23 mph 1020.3mb 75f
8:04pm 10 25 mph 1020.3mb 75f
8:02pm 13 25 mph 1020.3mb -
7:57pm 10 16 mph 1020.3mb 75f
6:57pm 8 18 mph 1019.6mb 78f
6:48pm 13 18 mph 1019.6mb 79f
6:34pm 9 18 mph 1019.3mb 79f
5:57pm 8 18 mph 1019mb 79f
4:57pm 13 18 mph 1018.6mb 79f
3:57pm 14 20 mph 1018.6mb 79f
2:57pm 10 18 mph 1019mb 82f
1:57pm 16
mph
1019.3mb 82f
12:57pm 13 22 mph 1020.3mb 82f
11:57am 13 22 mph 1021mb 82f
10:57am 13 20 mph 1021.3mb 81f
9:57am 13 22 mph 1021.3mb 79f
8:57am 8 18 mph 1021mb 77f
7:57am 14 20 mph 1020.7mb 77f
6:57am 10 17 mph 1020mb 72f
5:57am 8
mph
1019.3mb 72f
4:57am 9
mph
1019mb 72f
3:57am 7 16 mph 1018.6mb -
2:57am 9
mph
1018.6mb -
1:57am 12 20 mph 1019.3mb -
12:57am 12 23 mph 1020mb -
12:25am 9 21 mph 1020mb -
12:14am 12 20 mph 1020mb -
Wed 04/23 11:57pm 12 20 mph 1020mb -
10:57pm 9 20 mph 1020.7mb -
9:57pm 10 18 mph 1020.3mb -
8:57pm 10 17 mph 1020mb 77f
7:57pm 8 16 mph 1019.3mb 79f
6:57pm 13 20 mph 1018.6mb 79f
5:57pm 10
mph
1018mb 81f
4:57pm 9
mph
1018mb 82f
3:57pm 12 18 mph 1018mb 82f
2:57pm 10
mph
1018mb 82f
1:57pm 12 18 mph 1018.3mb 82f
12:57pm 12 20 mph 1019mb 81f
11:57am 14 20 mph 1019.6mb 77f
10:57am 12
mph
1020.3mb 77f
9:57am 7 17 mph 1020.3mb 73f
8:57am 10
mph
1020mb 73f
7:57am 7
mph
1019.6mb 73f
6:57am 8
mph
1019.3mb 70f
6:13am 6
mph
1019mb 70f
5:57am 6
mph
1019mb 70f
4:57am 6
mph
1018.6mb 70f
3:57am 9
mph
1018.3mb 70f
2:57am 12
mph
1018.3mb 70f
1:57am 8 17 mph 1019mb 70f
1:07am 7 18 mph 1019.6mb 70f
12:57am 10 17 mph 1019.6mb 70f
12:14am 9 18 mph 1020mb 70f
Tue 04/22 11:57pm 13 18 mph 1020mb 72f
11:54pm 12 18 mph 1020mb 72f
10:57pm 9 20 mph 1020.3mb 72f
9:57pm 8
mph
1020.3mb 72f
9:32pm 10 21 mph 1020mb 72f
9:20pm 13
mph
1020mb 72f
8:57pm 12 24 mph 1020mb 72f
8:04pm 8
mph
1019.3mb -
7:57pm 9
mph
1019.3mb 75f
7:05pm 7
mph
1019mb 75f
6:57pm 8
mph
1018.6mb 75f
5:57pm 13 21 mph 1018.3mb 77f
4:57pm 10
mph
1018mb 77f
3:57pm 13
mph
1018mb 79f
2:57pm 7 22 mph 1018.3mb 79f
2:04pm 12 23 mph 1018.6mb 79f
1:57pm 13 20 mph 1019mb 81f
1:34pm 13 28 mph 1019.3mb 81f
12:57pm 15 23 mph 1019.6mb 81f
11:57am 12 23 mph 1020.7mb 79f
11:20am 15 23 mph 1020.7mb 79f
11:07am 10 23 mph 1020.7mb 79f
10:57am 14 24 mph 1021mb 79f
9:57am 14 21 mph 1021mb 77f
9:22am 15 23 mph 1021mb 77f
8:57am 13 23 mph 1021mb 77f
8:49am 14 22 mph 1021mb 77f
7:57am 9 21 mph 1020.7mb 76f
6:57am 12 22 mph 1020mb 73f
5:57am 14 22 mph 1019.6mb 72f
4:57am 14 23 mph 1019.3mb 73f
4:12am 8 16 mph 1019.3mb -
3:57am 12 20 mph 1019.3mb 73f
2:57am 10 23 mph 1019.6mb 73f
1:57am 8 18 mph 1020mb 73f
1:12am 12 21 mph 1020.3mb 72f
1:05am 9 17 mph 1020.3mb 72f
12:57am 12 18 mph 1020.3mb 72f
12:34am 10
mph
1020.7mb 70f
Mon 04/21 11:57pm 8 18 mph 1020.7mb 70f
10:57pm 9 20 mph 1021mb 70f
9:57pm 13 18 mph 1021mb 72f
9:48pm 14 21 mph 1021mb 72f
8:57pm 12 22 mph 1020.7mb 73f
7:57pm 14 25 mph 1020.3mb 75f
6:57pm 10 28 mph 1019.6mb 75f
6:48pm 20 28 mph 1019.6mb 75f
5:57pm 10 17 mph 1019.6mb 77f
5:29pm 9 16 mph 1019.6mb 77f
5:19pm 13 21 mph 1019.6mb 77f
4:57pm 10 21 mph 1019.6mb 77f
3:57pm 14 23 mph 1019.6mb 76f
3:25pm 10 21 mph 1019.6mb 77f
2:57pm 14 27 mph 1019.6mb 77f
1:57pm 9 23 mph 1020.3mb 77f
12:57pm 17 25 mph 1021mb 77f
12:00pm 13 32 mph 1021.7mb -
11:57am 17 30 mph 1021.7mb 76f
11:13am 13 21 mph 1021.7mb 75f
10:57am 12 21 mph 1022mb 75f
10:34am 12 22 mph 1022mb 77f
9:57am 15 21 mph 1022.4mb 76f
8:57am 13 21 mph 1022mb 74f